IZ2MHJ-3 Weather Reports


time (UTC)temp
F
wind
direction
speed
knots
gust
knots
rain 1hr
in
rain 24hr
in
rain mn
in
humidity
%
barometer
mb
20260507192508 67 0.0 0.0 0.00 0.00 0.00 56 1014.9
20260507190508 68 0.0 0.0 0.00 0.00 0.00 53 1014.5
20260507184508 68 0.0 0.0 0.00 0.00 0.00 53 1014.4
20260507182507 67 0.0 0.0 0.00 0.00 0.00 55 1014.2
20260507180507 70 0.0 0.0 0.00 0.00 0.00 52 1013.9
20260507174507 72 0.0 0.0 0.00 0.00 0.00 49 1013.6
20260507172507 73 0.0 0.0 0.00 0.00 0.00 44 1013.4
20260507170506 76 0.0 0.0 0.00 0.00 0.00 40 1013.2
20260507164506 74 0.0 0.0 0.00 0.00 0.00 43 1013.1
20260507162506 77 0.0 0.0 0.00 0.00 0.00 41 1013.0
20260507160506 78 0.0 0.0 0.00 0.00 0.00 39 1012.9
20260507154505 78 0.0 0.0 0.00 0.00 0.00 37 1013.0
20260507152505 77 0.0 0.0 0.00 0.00 0.00 40 1013.0
20260507150504 76 0.0 0.0 0.00 0.00 0.00 40 1013.0
20260507144504 76 0.0 0.0 0.00 0.00 0.00 42 1013.2
20260507142504 78 0.0 0.0 0.00 0.00 0.00 38 1013.0
20260507140503 77 0.0 0.0 0.00 0.00 0.00 40 1013.2
20260507134503 78 0.0 0.0 0.00 0.00 0.00 40 1013.3
20260507132503 80 0.0 0.0 0.00 0.00 0.00 40 1013.4
20260507130503 79 0.0 0.0 0.00 0.00 0.00 39 1013.6
20260507124502 78 0.0 0.0 0.00 0.00 0.00 43 1013.7
20260507122502 75 0.0 0.0 0.00 0.00 0.00 44 1014.0
20260507120502 75 0.0 0.0 0.00 0.00 0.00 45 1014.2
20260507114501 72 0.0 0.0 0.00 0.00 0.00 49 1014.3
20260507112501 76 0.0 0.0 0.00 0.00 0.00 45 1014.3
20260507110501 74 0.0 0.0 0.00 0.00 0.00 48 1014.5
20260507104500 74 0.0 0.0 0.00 0.00 0.00 48 1014.8
20260507102500 71 0.0 0.0 0.00 0.00 0.00 49 1015.1
20260507100500 73 0.0 0.0 0.00 0.00 0.00 49 1015.0
20260507094459 71 0.0 0.0 0.00 0.00 0.00 49 1015.1
20260507092459 73 0.0 0.0 0.00 0.00 0.00 49 1015.1
20260507090459 69 0.0 0.0 0.00 0.00 0.00 55 1015.1
20260507084459 64 0.0 0.0 0.00 0.00 0.00 64 1015.3
20260507082458 66 0.0 0.0 0.00 0.00 0.00 62 1015.2
20260507080458 64 0.0 0.0 0.00 0.00 0.00 64 1015.1
20260507074458 63 0.0 0.0 0.00 0.00 0.00 68 1014.9
20260507072457 62 0.0 0.0 0.00 0.00 0.00 70 1015.0
20260507070457 61 0.0 0.0 0.00 0.00 0.00 72 1014.8
20260507064457 60 0.0 0.0 0.00 0.00 0.00 73 1014.7
20260507062457 57 0.0 0.0 0.00 0.00 0.00 81 1014.7
20260507060456 56 0.0 0.0 0.00 0.00 0.00 83 1014.7
20260507054456 56 0.0 0.0 0.00 0.00 0.00 82 1014.6
20260507052455 54 0.0 0.0 0.00 0.00 0.00 85 1014.5
20260507050455 54 0.0 0.0 0.00 0.00 0.00 85 1014.1
20260507044455 54 0.0 0.0 0.00 0.00 0.00 86 1013.9
20260507042454 53 0.0 0.0 0.00 0.00 0.00 87 1013.8
20260507040454 53 0.0 0.0 0.00 0.00 0.00 87 1013.6
20260507034454 53 0.0 0.0 0.00 0.00 0.00 88 1013.6
20260507032454 53 0.0 0.0 0.00 0.00 0.00 88 1013.5
20260507030454 53 0.0 0.0 0.00 0.00 0.00 88 1013.7
20260507024453 53 0.0 0.0 0.00 0.00 0.00 87 1013.6
20260507022453 54 0.0 0.0 0.00 0.00 0.00 87 1013.6
20260507020452 54 0.0 0.0 0.00 0.00 0.00 87 1013.6
20260507014452 54 0.0 0.0 0.00 0.00 0.00 87 1013.4
20260507012452 54 0.0 0.0 0.00 0.00 0.00 87 1013.2
20260507010451 54 0.0 0.0 0.00 0.00 0.00 86 1013.3
20260507004451 54 0.0 0.0 0.00 0.00 0.00 85 1013.2
20260507002451 54 0.0 0.0 0.00 0.00 0.00 84 1013.3
20260507000451 54 0.0 0.0 0.00 0.00 0.00 83 1013.3
20260506234450 54 0.0 0.0 0.00 0.00 0.00 84 1013.0
20260506232450 54 0.0 0.0 0.00 0.00 0.00 84 1012.8
20260506230450 54 0.0 0.0 0.00 0.00 0.00 84 1012.9
20260506224449 55 0.0 0.0 0.00 0.00 0.00 84 1012.9
20260506222449 55 0.0 0.0 0.00 0.00 0.00 83 1013.0
20260506220449 54 0.0 0.0 0.00 0.00 0.00 84 1012.8
20260506214449 55 0.0 0.0 0.00 0.00 0.00 83 1012.7
20260506212448 55 0.0 0.0 0.00 0.00 0.00 83 1012.8
20260506210448 54 0.0 0.0 0.00 0.00 0.00 84 1012.9
20260506204447 55 0.0 0.0 0.00 0.00 0.00 82 1012.7
20260506202447 55 0.0 0.0 0.00 0.00 0.00 81 1012.8
20260506200447 55 0.0 0.0 0.00 0.00 0.00 81 1012.5
20260506194447 56 0.0 0.0 0.00 0.00 0.00 84 1012.4